TimeMDT,TemperatureF,Dew PointF,Humidity,Sea Level PressureIn,VisibilityMPH,Wind Direction,Wind SpeedMPH,Gust SpeedMPH,PrecipitationIn,Events,Conditions,WindDirDegrees,DateUTC
12:51 AM,57.0,44.1,62,29.84,10.0,NE,3.5,-,N/A,,Clear,40,2013-08-24 06:51:00
1:51 AM,52.0,41.0,66,29.84,10.0,West,4.6,-,N/A,,Clear,260,2013-08-24 07:51:00
2:51 AM,50.0,39.0,66,29.85,10.0,Calm,Calm,-,N/A,,Clear,0,2013-08-24 08:51:00
3:51 AM,50.0,39.0,66,29.86,10.0,Calm,Calm,-,N/A,,Clear,0,2013-08-24 09:51:00
4:51 AM,46.0,39.0,76,29.86,10.0,Calm,Calm,-,N/A,,Clear,0,2013-08-24 10:51:00
5:51 AM,46.9,37.9,71,29.86,10.0,Calm,Calm,-,N/A,,Clear,0,2013-08-24 11:51:00
6:51 AM,46.0,39.0,76,29.86,10.0,Calm,Calm,-,N/A,,Partly Cloudy,0,2013-08-24 12:51:00
7:51 AM,46.0,39.0,76,29.88,10.0,Calm,Calm,-,N/A,,Clear,0,2013-08-24 13:51:00
8:51 AM,52.0,41.0,66,29.88,10.0,Calm,Calm,-,N/A,,Clear,0,2013-08-24 14:51:00
9:51 AM,60.1,42.1,51,29.87,10.0,Calm,Calm,-,N/A,,Clear,0,2013-08-24 15:51:00
10:51 AM,64.0,42.1,45,29.87,10.0,Calm,Calm,-,N/A,,Clear,0,2013-08-24 16:51:00
11:51 AM,70.0,41.0,35,29.85,10.0,South,8.1,-,N/A,,Clear,180,2013-08-24 17:51:00
12:51 PM,75.9,39.0,26,29.83,10.0,South,9.2,-,N/A,,Clear,170,2013-08-24 18:51:00
1:51 PM,77.0,41.0,28,29.82,10.0,South,15.0,-,N/A,,Clear,170,2013-08-24 19:51:00
2:51 PM,77.0,39.9,26,29.82,10.0,South,9.2,-,N/A,,Partly Cloudy,190,2013-08-24 20:51:00
3:51 PM,79.0,35.1,20,29.80,9.0,Variable,4.6,-,N/A,,Clear,0,2013-08-24 21:51:00
4:51 PM,79.0,34.0,20,29.78,8.0,South,8.1,-,N/A,,Clear,180,2013-08-24 22:51:00
5:51 PM,80.1,36.0,20,29.76,8.0,South,6.9,-,N/A,,Clear,180,2013-08-24 23:51:00
6:51 PM,80.1,34.0,19,29.77,6.0,SSW,8.1,-,N/A,,Haze,200,2013-08-25 00:51:00
7:45 PM,73.4,35.6,25,29.91,10.0,SE,19.6,28.8,N/A,Thunderstorm,Thunderstorm,130,2013-08-25 01:45:00
7:51 PM,73.9,36.0,25,29.81,10.0,SE,13.8,28.8,N/A,Thunderstorm,Thunderstorm,140,2013-08-25 01:51:00
8:05 PM,73.4,35.6,25,29.91,10.0,SE,8.1,-,N/A,,Partly Cloudy,130,2013-08-25 02:05:00
8:51 PM,69.1,37.0,31,29.82,10.0,ESE,3.5,-,N/A,,Clear,120,2013-08-25 02:51:00
9:51 PM,64.9,39.0,39,29.82,10.0,Calm,Calm,-,N/A,,Partly Cloudy,0,2013-08-25 03:51:00
10:51 PM,61.0,41.0,48,29.84,10.0,Calm,Calm,-,N/A,,Clear,0,2013-08-25 04:51:00
11:51 PM,59.0,41.0,51,29.84,10.0,Calm,Calm,-,N/A,,Clear,0,2013-08-25 05:51:00